7T31GM LEPA-LPPR

Flight info

Callsign 7T31GM
Flight time 1h 30m
Altitude 39000
Route EPAMA3R EPAMA N733 ZMR L155 ADORO DCT INKIT INKIT6C
Aircraft B77L/H-SDE1E2E3FGHIJ2J3J4J5M1RWXY/LB1D1

Departure

Time 2026-05-07 16:44
Airport Palma de Mallorca Airport (LEPA)

Arrival

Time 2026-05-07 18:14
Airport Francisco de Sá Carneiro Airport (LPPR)
Time Latitude Longitude Altitude Speed Heading
2026-05-07 16:13 39.54860 2.72352 35 ft 0 kts 96°
2026-05-07 16:31 39.54861 2.72338 34 ft 2 kts 101°
2026-05-07 16:31 39.54865 2.72317 33 ft 2 kts 105°
2026-05-07 16:32 39.54870 2.72297 32 ft 2 kts 113°
2026-05-07 16:32 39.54877 2.72278 32 ft 2 kts 125°
2026-05-07 16:32 39.54887 2.72261 32 ft 2 kts 100°
2026-05-07 16:32 39.54888 2.72257 32 ft 0 kts 78°
2026-05-07 16:36 39.54897 2.72285 34 ft 10 kts 60°
2026-05-07 16:36 39.54939 2.72369 35 ft 13 kts 58°
2026-05-07 16:37 39.54998 2.72489 35 ft 19 kts 58°
2026-05-07 16:37 39.55071 2.72660 35 ft 24 kts 59°
2026-05-07 16:37 39.55168 2.72862 35 ft 27 kts 58°
2026-05-07 16:37 39.55266 2.73067 35 ft 27 kts 58°
2026-05-07 16:38 39.55365 2.73276 35 ft 27 kts 58°
2026-05-07 16:38 39.55461 2.73479 35 ft 18 kts 58°
2026-05-07 16:38 39.55499 2.73574 35 ft 10 kts 88°
2026-05-07 16:38 39.55444 2.73641 35 ft 16 kts 147°
2026-05-07 16:39 39.55289 2.73765 35 ft 31 kts 149°
2026-05-07 16:39 39.55110 2.73906 35 ft 30 kts 148°
2026-05-07 16:39 39.54933 2.74046 35 ft 28 kts 149°
2026-05-07 16:39 39.54825 2.74125 35 ft 12 kts 159°
2026-05-07 16:40 39.54765 2.74071 35 ft 12 kts 237°
2026-05-07 16:40 39.54716 2.73971 35 ft 16 kts 238°
2026-05-07 16:40 39.54655 2.73842 35 ft 17 kts 238°
2026-05-07 16:40 39.54592 2.73709 35 ft 19 kts 238°
2026-05-07 16:41 39.54518 2.73554 35 ft 20 kts 238°
2026-05-07 16:41 39.54446 2.73398 35 ft 20 kts 239°
2026-05-07 16:41 39.54379 2.73254 35 ft 18 kts 239°
2026-05-07 16:41 39.54315 2.73120 35 ft 17 kts 238°
2026-05-07 16:42 39.54251 2.72987 35 ft 17 kts 239°
2026-05-07 16:42 39.54189 2.72927 35 ft 9 kts 165°
2026-05-07 16:42 39.54158 2.72997 35 ft 9 kts 95°
2026-05-07 16:42 39.54152 2.73082 35 ft 9 kts 95°
2026-05-07 16:43 39.54147 2.73176 35 ft 15 kts 90°
2026-05-07 16:43 39.54230 2.73386 35 ft 43 kts 58°
2026-05-07 16:43 39.54517 2.73997 35 ft 117 kts 58°
2026-05-07 16:43 39.55060 2.75139 183 ft 169 kts 58°
2026-05-07 16:44 39.55670 2.76404 1116 ft 164 kts 59°
2026-05-07 16:44 39.56259 2.77645 2106 ft 161 kts 60°
2026-05-07 16:44 39.56836 2.78887 2973 ft 162 kts 60°
2026-05-07 16:44 39.57422 2.80148 3756 ft 168 kts 61°
2026-05-07 16:45 39.58030 2.81455 4533 ft 171 kts 60°
2026-05-07 16:45 39.58650 2.82781 5300 ft 174 kts 60°
2026-05-07 16:45 39.59288 2.84143 6048 ft 178 kts 59°
2026-05-07 16:45 39.59937 2.85529 6767 ft 181 kts 59°
2026-05-07 16:46 39.60685 2.86859 7371 ft 186 kts 34°
2026-05-07 16:46 39.61951 2.87398 7714 ft 206 kts 359°
2026-05-07 16:46 39.63393 2.86893 7943 ft 234 kts 326°
2026-05-07 16:46 39.64534 2.85257 8191 ft 258 kts 299°
2026-05-07 16:47 39.65705 2.83415 8595 ft 275 kts 321°
2026-05-07 16:47 39.67155 2.81781 9307 ft 280 kts 304°
2026-05-07 16:47 39.67806 2.79427 10211 ft 280 kts 272°
2026-05-07 16:47 39.67641 2.76913 10736 ft 281 kts 259°
2026-05-07 16:48 39.67259 2.74406 11430 ft 285 kts 258°
2026-05-07 16:48 39.66888 2.71847 12553 ft 289 kts 259°
2026-05-07 16:48 39.66577 2.69260 13775 ft 291 kts 261°
2026-05-07 16:48 39.66320 2.66637 14805 ft 295 kts 262°
2026-05-07 16:49 39.66109 2.64002 15854 ft 298 kts 263°
2026-05-07 16:49 39.65930 2.61303 16930 ft 301 kts 264°
2026-05-07 16:49 39.65772 2.58575 17993 ft 304 kts 264°
2026-05-07 16:49 39.65633 2.55859 18903 ft 307 kts 265°
2026-05-07 16:50 39.65501 2.53069 19823 ft 310 kts 265°
2026-05-07 16:50 39.65377 2.50271 20803 ft 311 kts 264°
2026-05-07 16:50 39.65254 2.47437 21695 ft 316 kts 264°
2026-05-07 16:50 39.65133 2.44590 22591 ft 320 kts 264°
2026-05-07 16:51 39.65009 2.41645 23278 ft 333 kts 264°
2026-05-07 16:51 39.64874 2.38518 23440 ft 358 kts 264°
2026-05-07 16:51 39.64733 2.35222 23607 ft 381 kts 264°
2026-05-07 16:51 39.64583 2.31684 23883 ft 399 kts 264°
2026-05-07 16:52 39.64431 2.28035 24428 ft 408 kts 264°
2026-05-07 16:52 39.64277 2.24334 25157 ft 411 kts 264°
2026-05-07 16:52 39.64121 2.20616 25976 ft 412 kts 264°
2026-05-07 16:52 39.63964 2.16899 26782 ft 414 kts 264°
2026-05-07 16:53 39.63805 2.13192 27536 ft 416 kts 264°
2026-05-07 16:53 39.63641 2.09419 28262 ft 419 kts 264°
2026-05-07 16:53 39.63474 2.05612 28954 ft 423 kts 264°
2026-05-07 16:53 39.63307 2.01849 29803 ft 421 kts 264°
2026-05-07 16:54 39.63141 1.98082 30833 ft 413 kts 263°
2026-05-07 16:54 39.62978 1.94389 31803 ft 406 kts 263°
2026-05-07 16:54 39.62815 1.90765 32634 ft 403 kts 263°
2026-05-07 16:54 39.62651 1.87153 33404 ft 400 kts 263°
2026-05-07 16:55 39.62485 1.83546 34150 ft 397 kts 263°
2026-05-07 16:55 39.62319 1.79968 34699 ft 397 kts 263°
2026-05-07 16:55 39.62151 1.76379 35116 ft 400 kts 263°
2026-05-07 16:55 39.61982 1.72795 35576 ft 401 kts 263°
2026-05-07 16:56 39.61812 1.69178 36093 ft 401 kts 264°
2026-05-07 16:56 39.61640 1.65553 36577 ft 402 kts 264°
2026-05-07 16:56 39.61293 1.58284 37481 ft 404 kts 264°
2026-05-07 16:57 39.61119 1.54686 37922 ft 405 kts 264°
2026-05-07 16:57 39.60941 1.51028 38371 ft 406 kts 264°
2026-05-07 16:57 39.60763 1.47367 38748 ft 406 kts 264°
2026-05-07 16:57 39.60583 1.43699 38921 ft 411 kts 264°
2026-05-07 16:58 39.60205 1.36173 38918 ft 424 kts 264°
2026-05-07 16:58 39.59782 1.28507 38918 ft 430 kts 264°
2026-05-07 16:59 39.59345 1.20777 38918 ft 431 kts 264°
2026-05-07 16:59 39.58904 1.13017 38911 ft 431 kts 263°
2026-05-07 17:00 39.58536 1.06563 38918 ft 430 kts 264°
2026-05-07 17:00 39.58092 0.98863 38921 ft 428 kts 263°
2026-05-07 17:01 39.57643 0.91167 38927 ft 427 kts 263°
2026-05-07 17:01 39.57190 0.83498 38933 ft 425 kts 263°
2026-05-07 17:02 39.56733 0.75855 38929 ft 425 kts 263°
2026-05-07 17:02 39.56275 0.68249 38932 ft 424 kts 263°
2026-05-07 17:03 39.55809 0.60606 38935 ft 425 kts 263°
2026-05-07 17:03 39.55342 0.52995 38937 ft 425 kts 263°
2026-05-07 17:04 39.54868 0.45330 38938 ft 425 kts 263°
2026-05-07 17:04 39.54393 0.37714 38936 ft 427 kts 263°
2026-05-07 17:05 39.53908 0.30027 38932 ft 427 kts 263°
2026-05-07 17:05 39.53415 0.22392 38933 ft 427 kts 263°
2026-05-07 17:06 39.52910 0.14695 38936 ft 427 kts 263°
2026-05-07 17:06 39.52405 0.07059 38937 ft 427 kts 263°
2026-05-07 17:07 39.51892 -0.00629 38929 ft 427 kts 263°
2026-05-07 17:07 39.51378 -0.08260 38934 ft 427 kts 263°
2026-05-07 17:08 39.50857 -0.15929 38939 ft 427 kts 263°
2026-05-07 17:08 39.50332 -0.23574 38939 ft 427 kts 263°
2026-05-07 17:09 39.49801 -0.31229 38940 ft 427 kts 263°
2026-05-07 17:09 39.49263 -0.38929 38967 ft 430 kts 263°
2026-05-07 17:10 39.49320 -0.46625 38972 ft 433 kts 277°
2026-05-07 17:10 39.51069 -0.54119 38962 ft 439 kts 292°
2026-05-07 17:11 39.54079 -0.61016 38967 ft 442 kts 296°
2026-05-07 17:11 39.57212 -0.67891 38959 ft 441 kts 296°
2026-05-07 17:12 39.60263 -0.74741 38958 ft 440 kts 295°
2026-05-07 17:12 39.63298 -0.81655 38938 ft 440 kts 295°
2026-05-07 17:13 39.66325 -0.88578 38936 ft 439 kts 295°
2026-05-07 17:13 39.69324 -0.95442 38918 ft 439 kts 295°
2026-05-07 17:14 39.72337 -1.02352 38908 ft 439 kts 295°
2026-05-07 17:14 39.75348 -1.09274 38919 ft 439 kts 295°
2026-05-07 17:15 39.78334 -1.16176 38910 ft 439 kts 295°
2026-05-07 17:15 39.81337 -1.23125 38921 ft 440 kts 295°
2026-05-07 17:16 39.84364 -1.30047 38936 ft 439 kts 295°
2026-05-07 17:16 39.87267 -1.36687 38945 ft 441 kts 295°
2026-05-07 17:17 39.90289 -1.43630 38965 ft 441 kts 295°
2026-05-07 17:17 39.93311 -1.50632 38980 ft 442 kts 295°
2026-05-07 17:18 39.96316 -1.57631 38987 ft 443 kts 295°
2026-05-07 17:18 39.99307 -1.64612 38980 ft 443 kts 295°
2026-05-07 17:19 40.02324 -1.71661 38992 ft 443 kts 295°
2026-05-07 17:19 40.05310 -1.78659 38981 ft 444 kts 295°
2026-05-07 17:20 40.08332 -1.85754 38970 ft 444 kts 295°
2026-05-07 17:20 40.11319 -1.92784 38969 ft 444 kts 295°
2026-05-07 17:21 40.14317 -1.99854 38974 ft 444 kts 295°
2026-05-07 17:21 40.17304 -2.06880 38967 ft 444 kts 296°
2026-05-07 17:22 40.20311 -2.13938 38962 ft 443 kts 296°
2026-05-07 17:22 40.23275 -2.20965 38958 ft 443 kts 295°
2026-05-07 17:23 40.26229 -2.28055 38959 ft 443 kts 295°
2026-05-07 17:23 40.29178 -2.35150 38958 ft 443 kts 295°
2026-05-07 17:24 40.32107 -2.42201 38955 ft 443 kts 295°
2026-05-07 17:24 40.35060 -2.49322 38948 ft 443 kts 295°
2026-05-07 17:25 40.37977 -2.56400 38946 ft 442 kts 295°
2026-05-07 17:25 40.40801 -2.63546 38945 ft 443 kts 294°
2026-05-07 17:26 40.43611 -2.70764 38936 ft 443 kts 294°
2026-05-07 17:26 40.46404 -2.77929 38939 ft 443 kts 294°
2026-05-07 17:27 40.49227 -2.85163 38935 ft 443 kts 294°
2026-05-07 17:27 40.52022 -2.92335 38932 ft 443 kts 294°
2026-05-07 17:28 40.54832 -2.99562 38932 ft 443 kts 294°
2026-05-07 17:28 40.57624 -3.06763 38933 ft 443 kts 294°
2026-05-07 17:29 40.60429 -3.14014 38933 ft 443 kts 294°
2026-05-07 17:29 40.63203 -3.21202 38917 ft 443 kts 294°
2026-05-07 17:30 40.65990 -3.28441 38935 ft 442 kts 294°
2026-05-07 17:30 40.68756 -3.35647 38921 ft 442 kts 294°
2026-05-07 17:31 40.71538 -3.42909 38926 ft 442 kts 294°
2026-05-07 17:31 40.74309 -3.50160 38914 ft 442 kts 294°
2026-05-07 17:32 40.77057 -3.57369 38923 ft 441 kts 294°
2026-05-07 17:32 40.79350 -3.63399 38927 ft 441 kts 294°
2026-05-07 17:33 40.82560 -3.71861 38940 ft 441 kts 294°
2026-05-07 17:33 40.85291 -3.79080 38939 ft 441 kts 294°
2026-05-07 17:34 40.88036 -3.86355 38919 ft 439 kts 295°
2026-05-07 17:34 40.90739 -3.93534 38914 ft 437 kts 295°
2026-05-07 17:35 40.93449 -4.00750 38911 ft 437 kts 295°
2026-05-07 17:35 40.96132 -4.07912 38910 ft 436 kts 294°
2026-05-07 17:36 40.98821 -4.15110 38920 ft 435 kts 294°
2026-05-07 17:36 41.01490 -4.22267 38907 ft 435 kts 294°
2026-05-07 17:37 41.04173 -4.29464 38910 ft 434 kts 294°
2026-05-07 17:37 41.06834 -4.36609 38912 ft 434 kts 294°
2026-05-07 17:38 41.09504 -4.43798 38909 ft 434 kts 294°
2026-05-07 17:38 41.12173 -4.51004 38906 ft 434 kts 294°
2026-05-07 17:39 41.14815 -4.58153 38907 ft 433 kts 294°
2026-05-07 17:39 41.17466 -4.65359 38913 ft 433 kts 294°
2026-05-07 17:40 41.20083 -4.72522 38905 ft 433 kts 294°
2026-05-07 17:40 41.22715 -4.79742 38908 ft 432 kts 294°
2026-05-07 17:41 41.25316 -4.86892 38910 ft 432 kts 294°
2026-05-07 17:41 41.27936 -4.94109 38902 ft 431 kts 294°
2026-05-07 17:42 41.30529 -5.01267 38905 ft 431 kts 294°
2026-05-07 17:42 41.33118 -5.08423 38911 ft 430 kts 294°
2026-05-07 17:43 41.35714 -5.15615 38908 ft 430 kts 294°
2026-05-07 17:43 41.38289 -5.22771 38903 ft 429 kts 294°
2026-05-07 17:44 41.40858 -5.29925 38899 ft 429 kts 293°
2026-05-07 17:44 41.43437 -5.37130 38896 ft 429 kts 293°
2026-05-07 17:45 41.45992 -5.44284 38887 ft 428 kts 293°
2026-05-07 17:45 41.48557 -5.51480 38883 ft 428 kts 293°
2026-05-07 17:46 41.51069 -5.58638 38876 ft 426 kts 289°
2026-05-07 17:46 41.52280 -5.64987 38883 ft 424 kts 277°
2026-05-07 17:47 41.52474 -5.72835 38880 ft 423 kts 265°
2026-05-07 17:47 41.51879 -5.80622 38874 ft 423 kts 264°
2026-05-07 17:48 41.51254 -5.88452 38872 ft 423 kts 265°
2026-05-07 17:48 41.50670 -5.96226 38871 ft 423 kts 265°
2026-05-07 17:49 41.50094 -6.04046 38871 ft 423 kts 265°
2026-05-07 17:49 41.49516 -6.11858 38872 ft 423 kts 265°
2026-05-07 17:50 41.48936 -6.19602 38840 ft 418 kts 265°
2026-05-07 17:50 41.48642 -6.23492 38069 ft 422 kts 265°
2026-05-07 17:50 41.48314 -6.27393 37469 ft 426 kts 263°
2026-05-07 17:51 41.47764 -6.31251 36912 ft 420 kts 258°
2026-05-07 17:51 41.47083 -6.34957 36662 ft 408 kts 258°
2026-05-07 17:51 41.46412 -6.38562 36651 ft 392 kts 258°
2026-05-07 17:51 41.45769 -6.42021 36551 ft 379 kts 258°
2026-05-07 17:52 41.45132 -6.45482 35884 ft 394 kts 259°
2026-05-07 17:52 41.44472 -6.49105 35691 ft 410 kts 259°
2026-05-07 17:52 41.43786 -6.52877 35449 ft 425 kts 259°
2026-05-07 17:52 41.43082 -6.56727 35188 ft 427 kts 259°
2026-05-07 17:53 41.42380 -6.60543 34939 ft 420 kts 259°
2026-05-07 17:53 41.41714 -6.64270 34352 ft 419 kts 259°
2026-05-07 17:53 41.41060 -6.68096 33166 ft 426 kts 260°
2026-05-07 17:53 41.40412 -6.71962 32115 ft 428 kts 260°
2026-05-07 17:54 41.39762 -6.75838 31144 ft 428 kts 259°
2026-05-07 17:54 41.39107 -6.79722 30148 ft 431 kts 259°
2026-05-07 17:54 41.38447 -6.83608 29281 ft 428 kts 259°
2026-05-07 17:54 41.37788 -6.87451 28508 ft 424 kts 259°
2026-05-07 17:55 41.37133 -6.91256 27808 ft 419 kts 259°
2026-05-07 17:55 41.36486 -6.95016 27100 ft 415 kts 259°
2026-05-07 17:55 41.35841 -6.98751 26408 ft 412 kts 259°
2026-05-07 17:55 41.35200 -7.02450 25753 ft 409 kts 259°
2026-05-07 17:56 41.34561 -7.06131 25099 ft 407 kts 258°
2026-05-07 17:56 41.33925 -7.09791 24447 ft 405 kts 258°
2026-05-07 17:56 41.33292 -7.13430 23824 ft 404 kts 258°
2026-05-07 17:56 41.32658 -7.17067 23140 ft 403 kts 258°
2026-05-07 17:57 41.32034 -7.20640 22454 ft 401 kts 258°
2026-05-07 17:57 41.31608 -7.23072 22024 ft 399 kts 258°
2026-05-07 17:57 41.30776 -7.27813 21212 ft 395 kts 257°
2026-05-07 17:57 41.30151 -7.31366 20623 ft 392 kts 257°
2026-05-07 17:58 41.29532 -7.34881 20040 ft 390 kts 257°
2026-05-07 17:58 41.28916 -7.38378 19455 ft 387 kts 257°
2026-05-07 17:58 41.28301 -7.41853 18891 ft 385 kts 256°
2026-05-07 17:58 41.27689 -7.45305 18324 ft 383 kts 256°
2026-05-07 17:59 41.27078 -7.48746 17686 ft 381 kts 256°
2026-05-07 17:59 41.26470 -7.52165 17063 ft 379 kts 256°
2026-05-07 17:59 41.25866 -7.55554 16493 ft 376 kts 255°
2026-05-07 17:59 41.25265 -7.58924 15900 ft 372 kts 255°
2026-05-07 18:00 41.24669 -7.62256 15346 ft 369 kts 255°
2026-05-07 18:00 41.24079 -7.65553 14794 ft 366 kts 255°
2026-05-07 18:00 41.23492 -7.68824 14231 ft 363 kts 255°
2026-05-07 18:00 41.22907 -7.72075 13693 ft 360 kts 254°
2026-05-07 18:01 41.22325 -7.75299 13097 ft 357 kts 255°
2026-05-07 18:01 41.21749 -7.78494 12505 ft 354 kts 254°
2026-05-07 18:01 41.21178 -7.81651 11959 ft 350 kts 254°
2026-05-07 18:01 41.20612 -7.84780 11411 ft 347 kts 254°
2026-05-07 18:02 41.19504 -7.90885 10561 ft 334 kts 254°
2026-05-07 18:02 41.18973 -7.93820 10404 ft 320 kts 253°
2026-05-07 18:02 41.18462 -7.96631 10264 ft 306 kts 253°
2026-05-07 18:03 41.17973 -7.99320 10129 ft 293 kts 253°
2026-05-07 18:03 41.17504 -8.01892 10010 ft 281 kts 253°
2026-05-07 18:03 41.17053 -8.04359 9903 ft 269 kts 253°
2026-05-07 18:03 41.16613 -8.06759 9590 ft 269 kts 253°
2026-05-07 18:04 41.16167 -8.09177 9281 ft 271 kts 253°
2026-05-07 18:04 41.15716 -8.11619 8982 ft 275 kts 253°
2026-05-07 18:04 41.15261 -8.14089 8696 ft 273 kts 253°
2026-05-07 18:04 41.14822 -8.16469 8430 ft 266 kts 253°
2026-05-07 18:05 41.14382 -8.18860 8136 ft 261 kts 253°
2026-05-07 18:05 41.13951 -8.21192 7843 ft 262 kts 253°
2026-05-07 18:05 41.13512 -8.23560 7551 ft 268 kts 253°
2026-05-07 18:05 41.13064 -8.25976 7238 ft 271 kts 253°
2026-05-07 18:06 41.12617 -8.28387 6932 ft 267 kts 253°
2026-05-07 18:06 41.12178 -8.30755 6635 ft 261 kts 253°
2026-05-07 18:06 41.11795 -8.32822 6370 ft 257 kts 253°
2026-05-07 18:06 41.11371 -8.35100 6054 ft 251 kts 253°
2026-05-07 18:07 41.10973 -8.37241 5767 ft 248 kts 253°
2026-05-07 18:07 41.10556 -8.39474 5486 ft 251 kts 254°
2026-05-07 18:07 41.10132 -8.41747 5187 ft 256 kts 254°
2026-05-07 18:07 41.09703 -8.44043 4910 ft 258 kts 255°
2026-05-07 18:08 41.09271 -8.46356 4613 ft 258 kts 255°
2026-05-07 18:08 41.08840 -8.48659 4343 ft 254 kts 255°
2026-05-07 18:08 41.08425 -8.50880 4226 ft 242 kts 255°
2026-05-07 18:08 41.08027 -8.52997 4076 ft 231 kts 256°
2026-05-07 18:09 41.07660 -8.54956 3987 ft 217 kts 256°
2026-05-07 18:09 41.07309 -8.56827 3908 ft 201 kts 256°
2026-05-07 18:09 41.06985 -8.58543 3867 ft 183 kts 256°
2026-05-07 18:09 41.06681 -8.60153 3692 ft 179 kts 256°
2026-05-07 18:10 41.06538 -8.61772 3517 ft 180 kts 281°
2026-05-07 18:10 41.07172 -8.63172 3338 ft 182 kts 319°
2026-05-07 18:10 41.08339 -8.63828 3160 ft 185 kts 346°
2026-05-07 18:10 41.09607 -8.64154 3101 ft 186 kts 347°
2026-05-07 18:11 41.10872 -8.64485 3030 ft 186 kts 346°
2026-05-07 18:11 41.11729 -8.64710 2812 ft 195 kts 346°
2026-05-07 18:11 41.13530 -8.65179 2213 ft 191 kts 347°
2026-05-07 18:11 41.14793 -8.65506 1920 ft 180 kts 346°
2026-05-07 18:12 41.15983 -8.65815 1725 ft 167 kts 346°
2026-05-07 18:12 41.17072 -8.66095 1484 ft 152 kts 346°
2026-05-07 18:12 41.18057 -8.66353 1312 ft 145 kts 345°
2026-05-07 18:12 41.19056 -8.66616 1096 ft 145 kts 345°
2026-05-07 18:13 41.20034 -8.66872 907 ft 142 kts 345°
2026-05-07 18:13 41.21003 -8.67130 723 ft 143 kts 346°
2026-05-07 18:13 41.21954 -8.67395 603 ft 141 kts 348°
2026-05-07 18:13 41.22934 -8.67633 373 ft 145 kts 346°
2026-05-07 18:14 41.23915 -8.67891 229 ft 138 kts 346°
2026-05-07 18:14 41.24727 -8.68107 211 ft 94 kts 349°
2026-05-07 18:14 41.25097 -8.68177 194 ft 33 kts
2026-05-07 18:14 41.25221 -8.68133 183 ft 12 kts 17°
2026-05-07 18:15 41.25285 -8.68096 180 ft 11 kts 44°
2026-05-07 18:15 41.25275 -8.68024 181 ft 8 kts 154°
2026-05-07 18:15 41.25219 -8.68003 194 ft 8 kts 165°
2026-05-07 18:15 41.25162 -8.67983 197 ft 8 kts 169°
2026-05-07 18:16 41.25103 -8.67972 197 ft 8 kts 171°
2026-05-07 18:16 41.25045 -8.67959 200 ft 8 kts 170°
2026-05-07 18:16 41.24988 -8.67944 204 ft 8 kts 169°
2026-05-07 18:16 41.24929 -8.67929 202 ft 10 kts 167°
2026-05-07 18:17 41.24850 -8.67883 207 ft 13 kts 149°
2026-05-07 18:17 41.24766 -8.67833 215 ft 14 kts 162°
2026-05-07 18:17 41.24657 -8.67800 216 ft 18 kts 167°
2026-05-07 18:17 41.24511 -8.67758 219 ft 25 kts 171°
2026-05-07 18:18 41.24342 -8.67719 229 ft 19 kts 167°
2026-05-07 18:18 41.24283 -8.67674 238 ft 10 kts 132°
2026-05-07 18:18 41.24232 -8.67596 239 ft 13 kts 142°
2026-05-07 18:18 41.24095 -8.67547 241 ft 24 kts 168°
2026-05-07 18:19 41.23932 -8.67504 241 ft 24 kts 168°
2026-05-07 18:19 41.23816 -8.67480 241 ft 7 kts 196°
2026-05-07 18:19 41.23793 -8.67541 241 ft 8 kts 257°
2026-05-07 18:19 41.23790 -8.67561 241 ft 0 kts 258°